Погода в Дангаре

Узбекистан     40°34′43″N   70°54′55″E
темп.,
°C
ветер,
м/с
пор.,
м/с
влажн.,
%
обл.,
%
осадки,
мм/ч
давл.,
гПа
погр.,
м
3 марта, ср
ср323:00+11всв1128100 0.0 102422
02:00+10ссз1237100 0.0 102341
05:00+9юз2369100 0.3 1023172
08:00+9юз2570100 0.5 1023428
11:00+10св1162100 0.7 1022461
14:00+11с2262100 0.1 1020613
17:00+11св3464100 0.1 1021461
20:00+8св3675100 0.0 1023347
4 марта, чт
чт423:00+8св247999 0.0 1024247
02:00+7в258499 0.0 1023242
05:00+6вюв238791 0.0 1023103
08:00+7в128233 0.0 1023102
11:00+11всв345950 0.0 1020639
14:00+14всв2341100 0.0 10171103
17:00+14юв1140100 0.0 10191025
20:00+12ююз2449100 0.1 1021281
5 марта, пт
пт523:00+11ююв2560100 0.1 1022257
02:00+10зюз61076100 0.9 1023783
05:00+9зюз11166698 0.9 1025755
08:00+8зюз101755100 0.0 1027669
11:00+11зюз8114183 0.0 1027843
14:00+13з553434 0.0 1025873
17:00+13св233335 0.0 1024906
20:00+11св47470 0.0 1027400
6 марта, сб
сб623:00+9всв38600 0.0 1026370
02:00+8в366367 0.0 1023234
05:00+7вюв246382 0.0 1020151
08:00+7в245788 0.0 1017195
11:00+11всв343889 0.0 1011572
14:00+15св1227100 0.0 1008747
17:00+15з4527100 0.0 1010734
20:00+12зюз5937100 0.0 1012379
7 марта, вс
вс723:00+11юз3643100 0.0 1014253
02:00+10зюз375299 0.0 1014266
05:00+9зюз71350100 0.0 1016592
08:00+8зюз81466100 0.0 1018615
11:00+11зюз81158100 0.0 1017597
14:00+13з664583 0.0 10161012
17:00+12з574991 0.0 1016598
20:00+10зюз475899 0.0 1018310